GW5950 Weather Reports


time (UTC)temp
F
wind
direction
speed
knots
gust
knots
rain 1hr
in
rain 24hr
in
rain mn
in
humidity
%
barometer
mb
20260503223658 53 264 5.2 6.1 0.00 0.00 0.00 39 1006.9
20260503223155 52 291 6.1 10.4 0.00 0.00 0.00 39 1006.7
20260503222652 52 334 2.6 14.8 0.00 0.00 0.00 39 1006.7
20260503222149 53 41 2.6 13.0 0.00 0.00 0.00 38 1006.8
20260503221648 53 331 1.7 11.3 0.00 0.00 0.00 38 1006.7
20260503221145 53 333 4.3 13.9 0.00 0.00 0.00 38 1006.5
20260503220641 53 284 4.3 10.4 0.00 0.00 0.00 38 1006.5
20260503220138 52 14 2.6 10.4 0.00 0.00 0.00 41 1006.4
20260503215635 52 288 6.1 9.6 0.00 0.00 0.00 40 1006.5
20260503215131 52 51 3.5 7.8 0.00 0.00 0.00 40 1006.3
20260503214630 52 57 2.6 5.2 0.00 0.00 0.00 40 1006.2
20260503214126 52 332 1.7 7.8 0.00 0.00 0.00 40 1006.2
20260503213620 52 96 0.0 8.7 0.00 0.00 0.00 40 1006.0
20260503213116 52 333 0.9 7.0 0.00 0.00 0.00 41 1006.1
20260503212613 52 312 3.5 13.9 0.00 0.00 0.00 39 1006.0
20260503212110 53 318 3.5 11.3 0.00 0.00 0.00 38 1005.9
20260503211608 52 297 3.5 12.2 0.00 0.00 0.00 39 1006.1
20260503211103 52 344 1.7 13.9 0.00 0.00 0.00 40 1006.0
20260503210600 52 331 1.7 8.7 0.00 0.00 0.00 41 1005.8
20260503210056 52 41 2.6 11.3 0.00 0.00 0.00 40 1005.6
20260503205552 53 60 6.1 7.0 0.00 0.00 0.00 40 1005.6
20260503205049 52 52 4.3 14.8 0.00 0.00 0.00 40 1005.5
20260503204546 53 321 2.6 2.6 0.00 0.00 0.00 42 1005.5
20260503204043 53 259 3.5 3.5 0.00 0.00 0.00 40 1005.3
20260503203540 52 280 3.5 8.7 0.00 0.00 0.00 40 1005.4
20260503203037 53 344 4.3 5.2 0.00 0.00 0.00 41 1005.5
20260503202535 52 73 4.3 12.2 0.00 0.00 0.00 40 1005.3
20260503202033 53 56 2.6 11.3 0.00 0.00 0.00 39 1005.3
20260503201526 53 338 2.6 8.7 0.00 0.00 0.00 40 1005.3
20260503201022 53 307 11.3 13.0 0.00 0.00 0.00 39 1005.2
20260503200518 53 34 6.1 9.6 0.00 0.00 0.00 40 1005.0
20260503200015 53 327 2.6 16.5 0.00 0.00 0.00 40 1005.4
20260503195512 54 18 3.5 7.0 0.00 0.00 0.00 38 1005.0
20260503195009 54 234 3.5 12.2 0.00 0.00 0.00 40 1005.1
20260503194506 54 135 1.7 4.3 0.00 0.00 0.00 40 1005.3
20260503194001 53 188 0.0 9.6 0.00 0.00 0.00 40 1005.2
20260503193457 53 51 3.5 9.6 0.00 0.00 0.00 41 1005.1
20260503192952 53 57 0.9 4.3 0.00 0.00 0.00 42 1005.4
20260503192449 52 60 4.3 9.6 0.00 0.00 0.00 41 1005.2
20260503191944 52 30 3.5 5.2 0.00 0.00 0.00 43 1005.2
20260503191442 52 40 3.5 12.2 0.00 0.00 0.00 43 1005.1
20260503190938 52 0 1.7 13.0 0.00 0.00 0.00 43 1005.5
20260503190436 53 299 11.3 13.0 0.00 0.00 0.00 42 1005.4
20260503185933 53 307 4.3 7.0 0.00 0.00 0.00 44 1005.1
20260503185429 53 293 5.2 10.4 0.00 0.00 0.00 44 1005.2
20260503184928 53 279 4.3 9.6 0.00 0.00 0.00 44 1005.4
20260503184426 52 71 3.5 5.2 0.00 0.00 0.00 44 1005.3
20260503183922 52 300 11.3 13.0 0.00 0.00 0.00 44 1005.5
20260503183418 52 103 4.3 4.3 0.00 0.00 0.00 46 1005.3
20260503182915 52 319 7.8 11.3 0.00 0.00 0.00 45 1005.3
20260503182414 52 313 5.2 10.4 0.00 0.00 0.00 47 1005.3
20260503181911 52 86 2.6 14.8 0.00 0.00 0.00 47 1005.4
20260503181408 52 11 0.0 6.1 0.00 0.00 0.00 48 1005.4
20260503180904 52 317 1.7 4.3 0.00 0.00 0.00 47 1005.4
20260503180403 52 13 1.7 5.2 0.00 0.00 0.00 46 1005.1
20260503175859 53 37 2.6 7.8 0.00 0.00 0.00 46 1005.4
20260503175357 52 37 1.7 6.1 0.00 0.00 0.00 48 1005.4
20260503174852 52 47 7.0 9.6 0.00 0.00 0.00 47 1005.4
20260503174351 51 313 1.7 5.2 0.00 0.00 0.00 50 1005.3
20260503173850 50 26 1.7 13.0 0.00 0.00 0.00 52 1005.5
20260503173347 50 356 2.6 9.6 0.00 0.00 0.00 52 1005.5
20260503172844 50 326 3.5 9.6 0.00 0.00 0.00 52 1005.5
20260503172342 50 298 4.3 9.6 0.00 0.00 0.00 51 1005.2
20260503171837 51 282 5.2 7.8 0.00 0.00 0.00 52 1005.4
20260503171334 51 61 3.5 6.1 0.00 0.00 0.00 51 1005.5
20260503170832 51 314 1.7 4.3 0.00 0.00 0.00 51 1005.3
20260503170328 51 25 1.7 6.1 0.00 0.00 0.00 51 1005.2
20260503150720 46 74 0.9 6.1 0.00 0.00 0.00 71 1005.7
20260503150217 46 283 7.0 7.8 0.00 0.00 0.00 72 1005.7
20260503140141 45 49 1.7 2.6 0.00 0.00 0.00 78 1005.7
20260503131110 45 54 6.1 6.1 0.00 0.00 0.00 79 1005.7
20260503130608 45 34 1.7 10.4 0.00 0.00 0.00 79 1005.7
20260503130106 45 342 0.9 4.3 0.00 0.00 0.00 79 1005.7
20260503110458 41 69 1.7 1.7 0.00 0.00 0.00 84 1006.2
20260503090349 42 291 0.0 1.7 0.00 0.00 0.00 84 1006.6
20260503081317 42 263 0.0 1.7 0.00 0.00 0.00 87 1007.1
20260503080813 42 89 0.0 1.7 0.00 0.00 0.00 87 1007.3
20260503080311 43 119 0.0 0.9 0.00 0.00 0.00 87 1007.4
20260503072747 43 303 0.0 0.9 0.00 0.00 0.00 88 1007.7
20260503072244 43 30 0.9 1.7 0.00 0.00 0.00 88 1008.0
20260503071740 43 89 0.0 0.0 0.00 0.00 0.00 88 1007.7
20260503071237 43 321 0.0 0.0 0.00 0.00 0.00 88 1007.6
20260503070733 43 60 0.0 0.0 0.00 0.00 0.00 88 1007.6
20260503070232 43 329 0.0 1.7 0.00 0.00 0.00 87 1007.6
20260503060156 45 343 0.9 2.6 0.00 0.00 0.00 84 1008.6
20260503054643 45 283 1.7 1.7 0.00 0.00 0.00 82 1009.0
20260503054141 45 294 1.7 2.6 0.00 0.00 0.00 83 1008.7
20260503053639 45 320 1.7 3.5 0.00 0.00 0.00 82 1008.9
20260503053137 45 124 0.0 1.7 0.00 0.00 0.00 83 1008.8
20260503052633 45 85 1.7 1.7 0.00 0.00 0.00 83 1008.7
20260503052130 45 53 0.9 1.7 0.00 0.00 0.00 82 1008.8
20260503051625 45 72 0.9 1.7 0.00 0.00 0.00 81 1008.9
20260503051123 45 19 1.7 1.7 0.00 0.00 0.00 81 1008.9
20260503050619 45 300 0.9 3.5 0.00 0.00 0.00 80 1009.0
20260503050116 45 59 0.0 2.6 0.00 0.00 0.00 81 1009.1
20260503045614 45 42 0.0 1.7 0.00 0.00 0.00 80 1008.9
20260503045110 45 166 1.7 2.6 0.00 0.00 0.00 82 1009.2
20260503044607 45 91 0.9 2.6 0.00 0.00 0.00 83 1009.1
20260503044105 45 76 0.0 0.9 0.00 0.00 0.00 82 1009.0
20260503043600 45 66 0.0 1.7 0.00 0.00 0.00 83 1009.2
20260503043058 45 321 0.0 0.9 0.00 0.00 0.00 81 1009.5
20260503042554 45 77 0.9 0.9 0.00 0.00 0.00 80 1009.4
20260503042050 46 52 0.0 0.9 0.00 0.00 0.00 80 1009.8
20260503041547 46 135 0.0 0.9 0.00 0.00 0.00 81 1009.5
20260503041045 46 74 0.0 1.7 0.00 0.00 0.00 81 1009.6
20260503040542 46 68 0.9 1.7 0.00 0.00 0.00 82 1009.5
20260503040039 46 74 0.0 1.7 0.00 0.06 0.06 81 1009.7
20260503035536 45 71 0.0 0.9 0.00 0.06 0.06 87 1009.7
20260503035034 45 60 0.0 1.7 0.00 0.06 0.06 89 1009.6
20260503034531 46 124 0.0 1.7 0.00 0.06 0.06 92 1009.6
20260503034028 46 160 0.0 1.7 0.00 0.06 0.06 93 1009.6
20260503033525 46 224 0.0 0.0 0.00 0.06 0.06 94 1009.4
20260503033023 46 326 0.9 0.9 0.00 0.06 0.06 96 1009.6
20260503032521 46 93 0.0 0.9 0.00 0.06 0.06 96 1009.7
20260503032019 46 114 0.0 1.7 0.00 0.06 0.06 96 1009.7
20260503031517 46 116 0.0 0.9 0.00 0.06 0.06 96 1009.8
20260503031013 46 55 0.0 0.0 0.00 0.06 0.06 96 1009.7
20260503030509 46 55 0.0 0.0 0.00 0.06 0.06 96 1009.7
20260503030007 46 76 0.0 1.7 0.00 0.06 0.06 96 1009.5
20260503025503 46 72 0.0 0.9 0.00 0.06 0.06 96 1009.7
20260503025001 46 69 0.0 0.0 0.00 0.06 0.06 95 1009.9
20260503024457 47 66 0.0 0.9 0.00 0.06 0.06 95 1009.6
20260503023954 47 89 0.0 0.9 0.00 0.06 0.06 95 1009.6
20260503023451 47 32 0.0 0.0 0.00 0.06 0.06 95 1009.6
20260503022948 47 76 0.0 0.0 0.00 0.06 0.06 95 1009.6
20260503022443 47 66 0.0 0.0 0.00 0.06 0.06 95 1009.6
20260503021939 47 290 0.0 0.9 0.00 0.06 0.06 95 1009.5
20260503021436 47 304 1.7 1.7 0.00 0.06 0.06 95 1009.6
20260503020933 47 76 0.0 0.9 0.00 0.06 0.06 94 1009.7
20260503020431 47 109 0.0 0.9 0.00 0.06 0.06 94 1009.8
20260503015927 48 89 0.0 0.9 0.00 0.06 0.06 94 1009.8
20260503015424 48 47 0.9 0.9 0.00 0.06 0.06 94 1009.8
20260503014920 48 165 0.9 1.7 0.00 0.06 0.06 94 1010.1
20260503014417 48 66 0.0 0.9 0.00 0.06 0.06 94 1009.8
20260503013915 48 116 0.0 0.0 0.00 0.06 0.06 93 1010.1
20260503013412 48 64 0.0 0.0 0.00 0.06 0.06 93 1009.9
20260503012909 48 55 0.0 0.0 0.00 0.06 0.06 93 1009.9
20260503012407 48 114 0.9 1.7 0.00 0.06 0.06 93 1009.9
20260503011903 48 94 1.7 1.7 0.00 0.06 0.06 93 1009.8
20260503011400 48 38 0.0 0.9 0.00 0.06 0.06 93 1009.7
20260503010857 48 166 0.0 0.9 0.00 0.06 0.06 93 1009.8
20260503010353 48 60 0.0 0.9 0.00 0.06 0.06 93 1009.7
20260503005850 48 59 0.0 0.0 0.00 0.06 0.06 92 1009.8
20260503005348 48 89 0.0 0.9 0.00 0.06 0.06 92 1009.7
20260503004844 48 76 0.0 0.9 0.00 0.06 0.06 91 1009.6
20260503004342 49 60 0.9 1.7 0.00 0.06 0.06 91 1009.5
20260503003839 49 65 1.7 2.6 0.00 0.06 0.06 91 1009.5
20260503003336 49 72 0.9 0.9 0.00 0.06 0.06 90 1009.5
20260503002833 49 76 0.0 0.0 0.00 0.06 0.06 90 1009.6
20260503002330 49 110 0.0 0.0 0.00 0.06 0.06 90 1009.4
20260503001826 50 114 0.0 0.9 0.00 0.06 0.06 89 1009.3
20260503001322 50 89 0.0 1.7 0.00 0.06 0.06 89 1009.4
20260503000820 50 77 0.9 0.9 0.00 0.06 0.06 88 1009.3
20260503000319 50 141 0.0 0.0 0.00 0.06 0.06 88 1009.3
20260502235814 50 150 0.0 0.0 0.00 0.06 0.06 88 1009.2
20260502235312 50 89 0.0 0.9 0.00 0.06 0.06 87 1009.1
20260502234808 50 189 0.0 0.9 0.00 0.06 0.06 87 1009.1
20260502234305 50 103 0.9 1.7 0.00 0.06 0.06 86 1009.0
20260502233801 51 75 0.9 1.7 0.00 0.06 0.06 86 1009.1
20260502233258 51 105 1.7 1.7 0.00 0.06 0.06 86 1009.1
20260502232754 51 205 0.0 0.9 0.00 0.06 0.06 85 1009.2
20260502232251 51 129 0.9 1.7 0.00 0.06 0.06 85 1009.1
20260502231748 51 114 1.7 1.7 0.00 0.06 0.06 86 1009.0
20260502231246 51 184 0.0 1.7 0.00 0.06 0.06 85 1009.0
20260502230744 51 199 1.7 1.7 0.00 0.06 0.06 85 1009.3
20260502230242 51 106 1.7 2.6 0.00 0.06 0.06 85 1009.1
20260502225738 51 184 0.0 1.7 0.00 0.06 0.06 85 1009.2
20260502225235 51 217 0.9 1.7 0.00 0.06 0.06 86 1009.0
20260502224731 51 182 1.7 2.6 0.00 0.06 0.06 86 1009.0
20260502224228 51 132 0.0 1.7 0.00 0.06 0.06 86 1008.7